This is the latest recevied weather packets stored in our database for station/object VK2KGV-15. If no packets are shown the sender has not sent any weather packets the latest 10 day(s).
| Time | Temp. | Humidity | Pressure | Rain* | Wind** | Luminosity | Snow |
|---|---|---|---|---|---|---|---|
| 1777826583 | 12.22° C | 84% | 1019.3 hPa | 0 mm | - | - | - |
| 1777825980 | 12.78° C | 86% | 1019.4 hPa | 0 mm | - | - | - |
| 1777825376 | 12.78° C | 89% | 1019.6 hPa | 0 mm | - | - | - |
| 1777824170 | 11.67° C | 88% | 1019.7 hPa | 0 mm | - | - | - |
| 1777822964 | 11.11° C | 85% | 1020.2 hPa | 0 mm | - | - | - |
| 1777821758 | 11.67° C | 85% | 1020.3 hPa | 0 mm | - | - | - |
| 1777820584 | 11.67° C | 85% | 1020.3 hPa | 0 mm | - | - | - |
| 1777820552 | 11.67° C | 85% | 1020.3 hPa | 0 mm | - | - | - |
| 1777819345 | 11.67° C | 83% | 1020.4 hPa | 0 mm | - | - | - |
| 1777818139 | 12.22° C | 84% | 1020.5 hPa | 0 mm | - | - | - |
| 1777816933 | 12.22° C | 82% | 1020.6 hPa | 0 mm | - | - | - |
| 1777815727 | 12.78° C | 81% | 1020.9 hPa | 0 mm | - | - | - |
| 1777814521 | 13.33° C | 78% | 1020.7 hPa | 0 mm | - | - | - |
| 1777811505 | 15° C | 73% | 1020.7 hPa | 0 mm | - | - | - |
| 1777810902 | 15.56° C | 72% | 1020.6 hPa | 0 mm | - | - | - |
| 1777809696 | 16.11° C | 74% | 1020.6 hPa | 0 mm | - | - | - |
| 1777808489 | 15° C | 75% | 1020.7 hPa | 0 mm | - | - | - |
| 1777806077 | 15° C | 69% | 1020.8 hPa | 0 mm | - | - | - |
| 1777804871 | 16.11° C | 66% | 1020.6 hPa | 0 mm | - | - | - |
| 1777803665 | 16.67° C | 67% | 1020.4 hPa | 0 mm | - | - | - |
| 1777802458 | 16.67° C | 64% | 1020.6 hPa | 0 mm | - | - | - |
| 1777801252 | 17.22° C | 60% | 1020.2 hPa | 0 mm | - | - | - |
| 1777800046 | 17.78° C | 60% | 1020 hPa | 0 mm | - | - | - |
| 1777798840 | 18.33° C | 58% | 1019.7 hPa | 0 mm | - | - | - |
| 1777797634 | 18.89° C | 57% | 1019.6 hPa | 0 mm | - | - | - |
* Rain since midnight (hover to see other rain measurements)
** Current wind speed in m/s (hover to see current wind gust speed)